Location: Napier
(39.4830°S, 176.9170°E)
Time: 03:19:39
(UTC+12:00)

Okean-O - Pass Details

Date: 15 August 2020
Orbit: 639 x 640 km, 98.2° (Epoch: 19 September)

Event Time Altitude Azimuth Distance (km) Brightness Sun altitude
Exits shadow 19:39:17 43° 175° (S) 923 3.3 -24.6°
Maximum altitude 19:40:46 81° 255° (WSW) 663 2.6 -24.9°
Drops below altitude 10° 19:45:12 10° 342° (NNW) 2,038 5.4 -25.7°
Sets 19:47:24 0° 343° (NNW) 2,939 6.2 -26.2°
